Celebrity Summit — 9HJC9 — position and weather

sailwx.info

Track history (hours):
 
Tides and Currents Weather Stations Pressure Air Temp Water Temp Dewpoint Dewpoint Depression Visibility Wind Speed Wind Dir Waves Ship Positions

Celebrity Summit

Last reported at 2017-Apr-24 00:38 UTC. Time now 2017-Apr-24 03:28 UTC.
Position N 18°09' W 064°37'.

Length 294 m; draft 8.3 m.

Type: Passenger vessel. MMSI: 249047000.

Date/timePositionNaut miles runAvg speedWind from/ knotsBaromVisibWave heightAir tempDewpointWater temp
2017-Apr-24 00:38N 18°09' W 064°37'3 8.2
2017-Apr-24 00:13N 18°10' W 064°40'2 8.3
2017-Apr-23 23:59N 18°10' W 064°43'4 8.3
2017-Apr-23 23:30N 18°10' W 064°47'4 8.0
2017-Apr-23 23:00N 18°11' W 064°51'6404.0
2017-Apr-23 23:00N 18°06' W 064°48'1020.0 080 / 28 5.4
2017-Apr-23 22:30N 18°14' W 064°54'20 1.4
2017-Apr-23 08:00N 18°24' W 065°12'3510.7 100 / 191014.0 23.0
2017-Apr-23 04:43N 18°39' W 065°45'210.3
2017-Apr-23 04:30N 18°39' W 065°48'510.3
2017-Apr-23 04:00N 18°40' W 065°53'6 9.5
2017-Apr-23 03:23N 18°38' W 065°59'410.5
2017-Apr-23 03:01N 18°36' W 066°02'510.2
2017-Apr-23 02:30N 18°33' W 066°06'4 8.4
2017-Apr-23 02:01N 18°29' W 066°08'1 3.0
2017-Apr-23 01:31N 18°28' W 066°06'1 1.1
2017-Apr-23 00:54N 18°28' W 066°06'0 0.0
2017-Apr-23 00:30N 18°28' W 066°06'0 0.0
2017-Apr-23 00:00N 18°28' W 066°06'0 0.0
2017-Apr-22 23:30N 18°28' W 066°06'0 0.0
2017-Apr-22 23:00N 18°28' W 066°06'0 0.0
2017-Apr-22 22:30N 18°28' W 066°06'0 0.0
2017-Apr-22 21:48N 18°28' W 066°06'0 0.0
2017-Apr-22 21:30N 18°28' W 066°06'0 0.0
2017-Apr-22 21:00N 18°28' W 066°06'0 0.0
2017-Apr-22 20:30N 18°28' W 066°06'0 0.0
2017-Apr-22 19:54N 18°28' W 066°06'0 0.0
2017-Apr-22 19:30N 18°28' W 066°06'0 0.0
2017-Apr-22 19:00N 18°28' W 066°06'0 0.0
2017-Apr-22 18:30N 18°28' W 066°06'0 0.0
2017-Apr-22 18:00N 18°28' W 066°06'0 0.0
2017-Apr-22 17:30N 18°28' W 066°06'0 0.0
2017-Apr-22 17:00N 18°28' W 066°06'0 0.0
2017-Apr-22 16:30N 18°28' W 066°06'0 0.0
2017-Apr-22 16:00N 18°28' W 066°06'0 0.0
2017-Apr-22 15:30N 18°28' W 066°06'0 0.0
2017-Apr-22 15:00N 18°28' W 066°06'0 0.0
2017-Apr-22 14:30N 18°28' W 066°06'0 0.0
2017-Apr-22 13:30N 18°28' W 066°06'0 0.0
2017-Apr-22 13:00N 18°28' W 066°06'0 0.0
2017-Apr-22 12:30N 18°28' W 066°06'0 0.0
2017-Apr-22 12:00N 18°28' W 066°06'0 0.0
2017-Apr-22 11:30N 18°28' W 066°06'0 0.0
2017-Apr-22 11:00N 18°28' W 066°06'6895.6
2017-Apr-22 11:00N 18°24' W 066°00'613.1 180 / 6 5.4
2017-Apr-22 10:30N 18°28' W 066°06'0 0.0
2017-Apr-22 10:00N 18°28' W 066°06'0 0.0
2017-Apr-22 09:30N 18°28' W 066°06'0 0.0
2017-Apr-22 09:00N 18°28' W 066°06'2 4.0
2017-Apr-22 08:30N 18°28' W 066°08'510.4
2017-Apr-22 08:00N 18°33' W 066°08'8 8.5
2017-Apr-22 07:07N 18°41' W 066°07'1 7.5
2017-Apr-22 06:56N 18°42' W 066°06'3 8.3
2017-Apr-22 06:30N 18°41' W 066°02'15 9.6
2017-Apr-22 05:00N 18°36' W 065°48'17 8.5 050 / 81015.7 24.0
2017-Apr-22 03:00N 18°36' W 065°30'35 6.7 050 / 181016.0 16.0
2017-Apr-21 21:51N 18°17' W 064°60'4 7.5
2017-Apr-21 21:18N 18°20' W 064°57'0 0.5
2017-Apr-21 20:54N 18°20' W 064°57'0 0.0
2017-Apr-21 20:27N 18°20' W 064°57'0 0.0
2017-Apr-21 12:33N 18°20' W 064°57'0 0.0
2017-Apr-21 12:30N 18°20' W 064°57'7 3.4
2017-Apr-21 10:30N 18°14' W 064°53'4 9.1
2017-Apr-21 10:00N 18°11' W 064°50'4 8.9
2017-Apr-21 09:30N 18°10' W 064°46'1510.1
2017-Apr-21 08:00N 18°06' W 064°30'46 9.2 040 / 161014.0 22.0
2017-Apr-21 03:00N 18°00' W 063°42'4 6.7 080 / 141015.0 16.0
2017-Apr-21 02:21N 18°04' W 063°39'3 8.8
2017-Apr-21 01:57N 18°03' W 063°36'5 8.8
2017-Apr-21 01:26N 18°03' W 063°31'4 8.8
2017-Apr-21 00:58N 18°02' W 063°27'5 8.8
2017-Apr-21 00:27N 18°02' W 063°22'4 8.8
2017-Apr-20 23:59N 18°01' W 063°18'4 8.8
2017-Apr-20 23:30N 18°01' W 063°13'4 8.7
2017-Apr-20 23:00N 18°01' W 063°09'5 8.8
2017-Apr-20 22:28N 18°00' W 063°04'1 0.1
2017-Apr-20 10:56N 18°00' W 063°03'5 9.3
2017-Apr-20 10:26N 18°00' W 063°08'511.9
2017-Apr-20 09:59N 17°60' W 063°13'611.9
2017-Apr-20 09:28N 17°59' W 063°20'612.0
2017-Apr-20 08:56N 17°57' W 063°26'511.7
2017-Apr-20 08:29N 17°58' W 063°32'2245.7
2017-Apr-20 08:00N 17°36' W 063°36'221177.6 030 / 161014.6 24.0
2017-Apr-20 07:58N 17°58' W 063°38'5 9.6
2017-Apr-20 07:25N 17°57' W 063°43'10423.5
2017-Apr-20 03:00N 17°18' W 065°24'85 4.5 080 / 191017.0 20.0
2017-Apr-19 08:00N 18°00' W 064°06'3319.8 030 / 231016.0 23.0
2017-Apr-19 06:20N 18°08' W 064°40'617.8
2017-Apr-19 06:00N 18°09' W 064°45'917.8
2017-Apr-19 05:30N 18°12' W 064°55'110 4.5
2017-Apr-18 05:00N 18°54' W 066°42'6611.0 090 / 271015.0 22.0
2017-Apr-17 23:00N 19°36' W 067°36'5016.5 080 / 331016.0 5.4 21.021.026.1
2017-Apr-17 20:00N 20°06' W 068°18'11113.9 080 / 301016.0 22.0
2017-Apr-17 12:00N 21°12' W 069°54'5714.3 080 / 301019.0 5.4 21.021.026.3
2017-Apr-17 08:00N 21°48' W 070°42'9912.4 070 / 291017.8 22.0
2017-Apr-17 00:00N 22°42' W 072°12'6115.2 080 / 331019.0 5.4 22.022.026.1
2017-Apr-16 20:00N 23°24' W 073°00'12213.6 080 / 311019.5 21.0
2017-Apr-16 11:00N 24°36' W 074°48'4113.5 080 / 321020.0 5.4 21.021.026.1
2017-Apr-16 08:00N 25°00' W 075°24'11914.8 090 / 301020.0 22.0
2017-Apr-16 00:00N 25°48' W 077°24'   1022.0 5.4 21.021.026.1
Track history (hours):
 
Tides and Currents Weather Stations Pressure Air Temp Water Temp Dewpoint Dewpoint Depression Visibility Wind Speed Wind Dir Waves Ship Positions

Celebrity Summit

Last reported at 2017-Apr-24 00:38 UTC. Time now 2017-Apr-24 03:28 UTC.
Position N 18°09' W 064°37'.

Length 294 m; draft 8.3 m.

Type: Passenger vessel. MMSI: 249047000.

Date/timePositionNaut miles runAvg speedWind from/ knotsBaromVisibWave heightAir tempDewpointWater temp
2017-Apr-24 00:38N 18°09' W 064°37'3 8.2
2017-Apr-24 00:13N 18°10' W 064°40'2 8.3
2017-Apr-23 23:59N 18°10' W 064°43'4 8.3
2017-Apr-23 23:30N 18°10' W 064°47'4 8.0
2017-Apr-23 23:00N 18°11' W 064°51'6404.0
2017-Apr-23 23:00N 18°06' W 064°48'1020.0 080 / 28 5.4
2017-Apr-23 22:30N 18°14' W 064°54'20 1.4
2017-Apr-23 08:00N 18°24' W 065°12'3510.7 100 / 191014.0 23.0
2017-Apr-23 04:43N 18°39' W 065°45'210.3
2017-Apr-23 04:30N 18°39' W 065°48'510.3
2017-Apr-23 04:00N 18°40' W 065°53'6 9.5
2017-Apr-23 03:23N 18°38' W 065°59'410.5
2017-Apr-23 03:01N 18°36' W 066°02'510.2
2017-Apr-23 02:30N 18°33' W 066°06'4 8.4
2017-Apr-23 02:01N 18°29' W 066°08'1 3.0
2017-Apr-23 01:31N 18°28' W 066°06'1 1.1
2017-Apr-23 00:54N 18°28' W 066°06'0 0.0
2017-Apr-23 00:30N 18°28' W 066°06'0 0.0
2017-Apr-23 00:00N 18°28' W 066°06'0 0.0
2017-Apr-22 23:30N 18°28' W 066°06'0 0.0
2017-Apr-22 23:00N 18°28' W 066°06'0 0.0
2017-Apr-22 22:30N 18°28' W 066°06'0 0.0
2017-Apr-22 21:48N 18°28' W 066°06'0 0.0
2017-Apr-22 21:30N 18°28' W 066°06'0 0.0
2017-Apr-22 21:00N 18°28' W 066°06'0 0.0
2017-Apr-22 20:30N 18°28' W 066°06'0 0.0
2017-Apr-22 19:54N 18°28' W 066°06'0 0.0
2017-Apr-22 19:30N 18°28' W 066°06'0 0.0
2017-Apr-22 19:00N 18°28' W 066°06'0 0.0
2017-Apr-22 18:30N 18°28' W 066°06'0 0.0
2017-Apr-22 18:00N 18°28' W 066°06'0 0.0
2017-Apr-22 17:30N 18°28' W 066°06'0 0.0
2017-Apr-22 17:00N 18°28' W 066°06'0 0.0
2017-Apr-22 16:30N 18°28' W 066°06'0 0.0
2017-Apr-22 16:00N 18°28' W 066°06'0 0.0
2017-Apr-22 15:30N 18°28' W 066°06'0 0.0
2017-Apr-22 15:00N 18°28' W 066°06'0 0.0
2017-Apr-22 14:30N 18°28' W 066°06'0 0.0
2017-Apr-22 13:30N 18°28' W 066°06'0 0.0
2017-Apr-22 13:00N 18°28' W 066°06'0 0.0
2017-Apr-22 12:30N 18°28' W 066°06'0 0.0
2017-Apr-22 12:00N 18°28' W 066°06'0 0.0
2017-Apr-22 11:30N 18°28' W 066°06'0 0.0
2017-Apr-22 11:00N 18°28' W 066°06'6895.6
2017-Apr-22 11:00N 18°24' W 066°00'613.1 180 / 6 5.4
2017-Apr-22 10:30N 18°28' W 066°06'0 0.0
2017-Apr-22 10:00N 18°28' W 066°06'0 0.0
2017-Apr-22 09:30N 18°28' W 066°06'0 0.0
2017-Apr-22 09:00N 18°28' W 066°06'2 4.0
2017-Apr-22 08:30N 18°28' W 066°08'510.4
2017-Apr-22 08:00N 18°33' W 066°08'8 8.5
2017-Apr-22 07:07N 18°41' W 066°07'1 7.5
2017-Apr-22 06:56N 18°42' W 066°06'3 8.3
2017-Apr-22 06:30N 18°41' W 066°02'15 9.6
2017-Apr-22 05:00N 18°36' W 065°48'17 8.5 050 / 81015.7 24.0
2017-Apr-22 03:00N 18°36' W 065°30'35 6.7 050 / 181016.0 16.0
2017-Apr-21 21:51N 18°17' W 064°60'4 7.5
2017-Apr-21 21:18N 18°20' W 064°57'0 0.5
2017-Apr-21 20:54N 18°20' W 064°57'0 0.0
2017-Apr-21 20:27N 18°20' W 064°57'0 0.0
2017-Apr-21 12:33N 18°20' W 064°57'0 0.0
2017-Apr-21 12:30N 18°20' W 064°57'7 3.4
2017-Apr-21 10:30N 18°14' W 064°53'4 9.1
2017-Apr-21 10:00N 18°11' W 064°50'4 8.9
2017-Apr-21 09:30N 18°10' W 064°46'1510.1
2017-Apr-21 08:00N 18°06' W 064°30'46 9.2 040 / 161014.0 22.0
2017-Apr-21 03:00N 18°00' W 063°42'4 6.7 080 / 141015.0 16.0
2017-Apr-21 02:21N 18°04' W 063°39'3 8.8
2017-Apr-21 01:57N 18°03' W 063°36'5 8.8
2017-Apr-21 01:26N 18°03' W 063°31'4 8.8
2017-Apr-21 00:58N 18°02' W 063°27'5 8.8
2017-Apr-21 00:27N 18°02' W 063°22'4 8.8
2017-Apr-20 23:59N 18°01' W 063°18'4 8.8
2017-Apr-20 23:30N 18°01' W 063°13'4 8.7
2017-Apr-20 23:00N 18°01' W 063°09'5 8.8
2017-Apr-20 22:28N 18°00' W 063°04'1 0.1
2017-Apr-20 10:56N 18°00' W 063°03'5 9.3
2017-Apr-20 10:26N 18°00' W 063°08'511.9
2017-Apr-20 09:59N 17°60' W 063°13'611.9
2017-Apr-20 09:28N 17°59' W 063°20'612.0
2017-Apr-20 08:56N 17°57' W 063°26'511.7
2017-Apr-20 08:29N 17°58' W 063°32'2245.7
2017-Apr-20 08:00N 17°36' W 063°36'221177.6 030 / 161014.6 24.0
2017-Apr-20 07:58N 17°58' W 063°38'5 9.6
2017-Apr-20 07:25N 17°57' W 063°43'10423.5
2017-Apr-20 03:00N 17°18' W 065°24'85 4.5 080 / 191017.0 20.0
2017-Apr-19 08:00N 18°00' W 064°06'3319.8 030 / 231016.0 23.0
2017-Apr-19 06:20N 18°08' W 064°40'617.8
2017-Apr-19 06:00N 18°09' W 064°45'917.8
2017-Apr-19 05:30N 18°12' W 064°55'110 4.5
2017-Apr-18 05:00N 18°54' W 066°42'6611.0 090 / 271015.0 22.0
2017-Apr-17 23:00N 19°36' W 067°36'5016.5 080 / 331016.0 5.4 21.021.026.1
2017-Apr-17 20:00N 20°06' W 068°18'11113.9 080 / 301016.0 22.0
2017-Apr-17 12:00N 21°12' W 069°54'5714.3 080 / 301019.0 5.4 21.021.026.3
2017-Apr-17 08:00N 21°48' W 070°42'9912.4 070 / 291017.8 22.0
2017-Apr-17 00:00N 22°42' W 072°12'6115.2 080 / 331019.0 5.4 22.022.026.1
2017-Apr-16 20:00N 23°24' W 073°00'12213.6 080 / 311019.5 21.0
2017-Apr-16 11:00N 24°36' W 074°48'4113.5 080 / 321020.0 5.4 21.021.026.1
2017-Apr-16 08:00N 25°00' W 075°24'11914.8 090 / 301020.0 22.0
2017-Apr-16 00:00N 25°48' W 077°24'   1022.0 5.4 21.021.026.1

Dump ship's entire track history